Weather History for Ukiah, CA

Change the Weather History Date:

Thursday, November 29, 2012

  Actual Average Record
Temperature  
Mean Temperature 57 °F 47 °F  
Max Temperature 60 °F 58 °F 78 °F (1949)
Min Temperature 54 °F 37 °F 22 °F (1906)
Degree Days  
Heating Degree Days 8 18  
Month to date heating degree days 323 405  
Since 1 July heating degree days 436 605  
Cooling Degree Days 0 0  
Month to date cooling degree days 1 0  
Year to date cooling degree days 983 835  
Growing Degree Days 6 (Base 50)    
Moisture  
Dew Point 54 °F    
Average Humidity 90    
Maximum Humidity 93    
Minimum Humidity 86    
Precipitation  
Precipitation 2.48 in 0.19 in 2.48 in (2012)
Month to date precipitation 7.16 4.06  
Year to date precipitation 28.16 30.19  
Since 1 July precipitation 9.24 6.81  
Snow  
Snow 0.00 in - - ()
Month to date snowfall 0.0  
Since 1 July snowfall 0.0  
Since 1 September snowfall 0.0  
Snow Depth 0.00 in    
Sea Level Pressure  
Sea Level Pressure 29.84 in    
Wind  
Wind Speed 11 mph (SSE)    
Max Wind Speed 22 mph    
Max Gust Speed 30 mph    
Visibility 5 miles    
Events Rain    
T = Trace of Precipitation, MM = Missing Value Source: NWS Daily Summary

Daily Weather History Graph

Daily Weather History Graph

Search for Another Location

Airport:

Trip Planner

Search our weather history database for the weather conditions in past years. The results will help you decide how hot, cold, wet, or windy it might be!

Date:

Astronomy

Nov. 29, 2012 Rise Set
Actual Time 7:11 AM PST 4:50 PM PST
Civil Twilight 6:42 AM PST 5:20 PM PST
Nautical Twilight 6:09 AM PST 5:53 PM PST
Astronomical Twilight 5:36 AM PST 6:25 PM PST
Moon 5:58 PM PST (11/29) 8:02 AM PST (11/29)
Length of Visible Light 10h 38m
Length of Day
9h 39m
Full, 99% of the Moon is Illuminated
Nov 29
Full
Dec 6
Last Quarter
Dec 13
New
Dec 19
First Quarter
Dec 28
Full

Hourly Weather History & Observations

Time (PST) Temp. Dew Point Humidity Pressure Visibility Wind Dir Wind Speed Gust Speed Precip Events Conditions
12:56 AM 55.0 °F 51.1 °F 86% 29.97 in 9.0 mi SSE 12.7 mph - 0.00 in Rain Light Rain
1:37 AM 55.4 °F 51.8 °F 88% 29.97 in 10.0 mi SSE 9.2 mph - 0.00 in Rain Light Rain
1:56 AM 55.0 °F 51.1 °F 86% 29.96 in 10.0 mi SSE 11.5 mph 19.6 mph 0.00 in   Overcast
2:06 AM 53.6 °F 51.8 °F 94% 29.97 in 10.0 mi SSE 11.5 mph - N/A   Overcast
2:54 AM 53.6 °F 51.8 °F 94% 29.97 in 5.0 mi SSE 10.4 mph 19.6 mph 0.02 in Rain Light Rain
2:56 AM 54.0 °F 51.1 °F 90% 29.96 in 6.0 mi SSE 10.4 mph 17.3 mph 0.02 in Rain Light Rain
3:56 AM 54.0 °F 51.1 °F 90% 29.94 in 6.0 mi SSE 11.5 mph - 0.02 in Rain Light Rain
4:07 AM 53.6 °F 51.8 °F 94% 29.95 in 9.0 mi SSE 10.4 mph - 0.00 in   Overcast
4:41 AM 53.6 °F 51.8 °F 94% 29.94 in 4.0 mi SSE 9.2 mph 19.6 mph 0.01 in Rain Light Rain
4:56 AM 54.0 °F 52.0 °F 93% 29.93 in 4.0 mi SSE 11.5 mph 18.4 mph 0.02 in Rain Light Rain
5:39 AM 53.6 °F 51.8 °F 94% 29.94 in 3.0 mi SSE 8.1 mph 16.1 mph 0.03 in Rain Light Rain
5:56 AM 54.0 °F 52.0 °F 93% 29.93 in 4.0 mi SSE 9.2 mph 18.4 mph 0.04 in Rain Light Rain
6:56 AM 54.0 °F 52.0 °F 93% 29.93 in 6.0 mi SE 11.5 mph 20.7 mph 0.03 in Rain Light Rain
7:56 AM 55.0 °F 52.0 °F 89% 29.92 in 10.0 mi SSE 9.2 mph 18.4 mph 0.01 in   Overcast
8:19 AM 55.4 °F 51.8 °F 88% 29.92 in 10.0 mi SSE 10.4 mph 20.7 mph N/A   Overcast
8:56 AM 55.9 °F 51.1 °F 84% 29.91 in 10.0 mi SSE 16.1 mph 25.3 mph N/A   Overcast
9:47 AM 55.4 °F 51.8 °F 88% 29.91 in 10.0 mi SSE 13.8 mph 26.5 mph 0.00 in Rain Light Rain
9:56 AM 55.9 °F 51.1 °F 84% 29.91 in 10.0 mi SSE 16.1 mph 25.3 mph 0.00 in   Overcast
10:54 AM 55.4 °F 51.8 °F 88% 29.92 in 5.0 mi SSE 13.8 mph 24.2 mph 0.00 in Rain Light Rain
10:56 AM 55.0 °F 52.0 °F 89% 29.91 in 5.0 mi SSE 11.5 mph 24.2 mph 0.00 in Rain Light Rain
11:25 AM 55.4 °F 51.8 °F 88% 29.91 in 2.5 mi SE 15.0 mph 25.3 mph 0.01 in Rain Light Rain
11:34 AM 55.4 °F 51.8 °F 88% 29.90 in 4.0 mi SSE 18.4 mph 26.5 mph 0.01 in Rain Light Rain
11:56 AM 55.0 °F 52.0 °F 89% 29.88 in 10.0 mi SSE 13.8 mph 23.0 mph 0.01 in Rain Light Rain
12:33 PM 55.4 °F 51.8 °F 88% 29.88 in 1.8 mi SSE 16.1 mph 26.5 mph 0.04 in Rain Light Rain
12:56 PM 55.0 °F 53.1 °F 93% 29.86 in 1.8 mi SSE 15.0 mph 26.5 mph 0.12 in Rain Rain
1:08 PM 55.4 °F 53.6 °F 94% 29.86 in 3.0 mi SSE 12.7 mph 25.3 mph 0.02 in Rain Light Rain
1:18 PM 55.4 °F 53.6 °F 94% 29.87 in 3.0 mi SSE 16.1 mph 25.3 mph 0.04 in Rain Heavy Rain
1:25 PM 55.4 °F 53.6 °F 94% 29.86 in 2.0 mi SSE 13.8 mph 25.3 mph 0.06 in Rain Rain
1:39 PM 55.4 °F 53.6 °F 94% 29.86 in 3.0 mi SSE 10.4 mph 24.2 mph 0.08 in Rain Light Rain
1:56 PM 55.0 °F 54.0 °F 96% 29.82 in 3.0 mi SSE 11.5 mph 19.6 mph 0.13 in Rain Heavy Rain
2:11 PM 55.4 °F 53.6 °F 94% 29.82 in 2.5 mi SSE 10.4 mph 18.4 mph 0.05 in Rain Rain
2:53 PM 55.4 °F 53.6 °F 94% 29.82 in 3.0 mi South 10.4 mph 19.6 mph 0.22 in Rain Rain
2:56 PM 55.9 °F 54.0 °F 93% 29.81 in 3.0 mi SSE 10.4 mph 19.6 mph 0.24 in Rain Rain
2:58 PM 55.4 °F 53.6 °F 94% 29.81 in 2.5 mi SSE 9.2 mph 19.6 mph 0.01 in Rain Rain
3:29 PM 57.2 °F 55.4 °F 94% 29.81 in 3.0 mi SSE 11.5 mph 18.4 mph 0.15 in Rain Heavy Rain
3:36 PM 57.2 °F 55.4 °F 94% 29.81 in 2.0 mi SSE 11.5 mph - 0.20 in Rain Heavy Rain
3:56 PM 57.0 °F 55.0 °F 93% 29.80 in 1.5 mi SSE 6.9 mph - 0.34 in Rain Heavy Rain
4:07 PM 57.2 °F 55.4 °F 94% 29.81 in 3.0 mi SSW 6.9 mph - 0.04 in Rain Rain
4:15 PM 57.2 °F 55.4 °F 94% 29.81 in 3.0 mi South 6.9 mph - 0.07 in Rain Rain
4:26 PM 57.2 °F 55.4 °F 94% 29.81 in 2.5 mi SSE 10.4 mph 17.3 mph 0.11 in Rain Heavy Rain
4:38 PM 57.2 °F 55.4 °F 94% 29.81 in 5.0 mi SSE 11.5 mph - 0.14 in Rain Rain
4:56 PM 57.0 °F 55.0 °F 93% 29.79 in 7.0 mi SSE 13.8 mph 19.6 mph 0.16 in Rain Light Rain
5:33 PM 57.2 °F 55.4 °F 94% 29.80 in 5.0 mi SSE 9.2 mph 17.3 mph 0.08 in Rain Rain
5:56 PM 57.0 °F 55.0 °F 93% 29.78 in 5.0 mi SSE 8.1 mph 17.3 mph 0.12 in Rain Light Rain
6:56 PM 57.0 °F 55.9 °F 96% 29.78 in 4.0 mi SSE 5.8 mph - 0.18 in Rain Heavy Rain
7:07 PM 57.2 °F 55.4 °F 94% 29.78 in 2.5 mi South 8.1 mph - 0.07 in Rain Heavy Rain
7:14 PM 57.2 °F 55.4 °F 94% 29.78 in 5.0 mi SSE 6.9 mph - 0.08 in Rain Light Rain
7:31 PM 57.2 °F 55.4 °F 94% 29.77 in 7.0 mi SSE 8.1 mph - 0.10 in Rain Light Rain
7:56 PM 57.9 °F 55.9 °F 93% 29.75 in 3.0 mi South 8.1 mph - 0.15 in Rain Heavy Rain
8:39 PM 57.2 °F 55.4 °F 94% 29.76 in 5.0 mi SE 10.4 mph - 0.19 in Rain Rain
8:42 PM 57.2 °F 55.4 °F 94% 29.75 in 4.0 mi SSE 10.4 mph - 0.20 in Rain Rain
8:51 PM 57.2 °F 55.4 °F 94% 29.75 in 6.0 mi SSE 8.1 mph - 0.22 in Rain Light Rain
8:56 PM 57.9 °F 55.9 °F 93% 29.73 in 9.0 mi SSE 8.1 mph 16.1 mph 0.22 in Rain Light Rain
9:56 PM 59.0 °F 55.9 °F 90% 29.70 in 8.0 mi SSE 11.5 mph 23.0 mph 0.10 in Rain Light Rain
10:46 PM 59.0 °F 55.4 °F 88% 29.72 in 4.0 mi SSE 6.9 mph - 0.09 in Rain Rain
10:56 PM 57.9 °F 55.9 °F 93% 29.70 in 3.0 mi South 4.6 mph - 0.13 in Rain Rain
11:10 PM 57.2 °F 55.4 °F 94% 29.73 in 2.5 mi SSE 4.6 mph - 0.09 in Rain Heavy Rain
11:30 PM 60.8 °F 55.4 °F 82% 29.73 in 3.0 mi Variable 5.8 mph 16.1 mph 0.25 in Rain Heavy Rain
11:56 PM 60.1 °F 55.9 °F 86% 29.72 in 3.0 mi South 3.5 mph - 0.44 in Rain Heavy Rain
11:58 PM 60.8 °F 55.4 °F 82% 29.73 in 2.5 mi South 6.9 mph - 0.03 in Rain Heavy Rain